Weather History for Weatherford, OK

Change the Weather History Date:

Thursday, January 2, 2014

  Actual Average (KJWG) Record (KJWG)
Temperature  
Mean Temperature 28 °F -  
Max Temperature 39 °F 45 °F 69 °F (1964)
Min Temperature 17 °F 25 °F 1 °F (1979)
Degree Days  
Heating Degree Days 37    
Moisture  
Dew Point 19 °F    
Average Humidity 72    
Maximum Humidity 86    
Minimum Humidity 56    
Precipitation  
Precipitation 0.00 in - - ()
Sea Level Pressure  
Sea Level Pressure 30.40 in    
Wind  
Wind Speed 9 mph (West)    
Max Wind Speed 20 mph    
Max Gust Speed 26 mph    
Visibility 10 miles    
Events      
Averages and records for this station are not official NWS values.
T = Trace of Precipitation, MM = Missing Value Source: NWS Daily Summary

Daily Weather History Graph

Daily Weather History Graph

Search for Another Location

Airport:

Trip Planner

Search our weather history database for the weather conditions in past years. The results will help you decide how hot, cold, wet, or windy it might be!

Date:

Astronomy

Jan. 02, 2014 Rise Set
Actual Time 7:44 AM CST 5:33 PM CST
Civil Twilight 7:16 AM CST 6:01 PM CST
Nautical Twilight 6:44 AM CST 6:33 PM CST
Astronomical Twilight 6:13 AM CST 7:04 PM CST
Moon 8:30 AM CST (1/2) 7:27 PM CST (1/2)
Length of Visible Light 10h 45m
Length of Day
9h 49m
Waxing Crescent, 3% of the Moon is Illuminated
Jan 2
Waxing Crescent
Jan 7
First Quarter
Jan 15
Full
Jan 23
Last Quarter
Jan 30
New

Hourly Weather History & Observations

Time (CST) Temp. Windchill Dew Point Humidity Pressure Visibility Wind Dir Wind Speed Gust Speed Precip Events Conditions
12:15 AM 21.2 °F 7.8 °F 15.8 °F 80% 30.35 in 10.0 mi North 15.0 mph 21.9 mph N/A   Clear
12:35 AM 21.2 °F 7.8 °F 15.8 °F 80% 30.36 in 10.0 mi North 15.0 mph 25.3 mph N/A   Clear
12:55 AM 21.2 °F 6.0 °F 15.8 °F 80% 30.36 in 10.0 mi North 19.6 mph 24.2 mph N/A   Clear
1:15 AM 21.2 °F 6.8 °F 15.8 °F 80% 30.36 in 10.0 mi North 17.3 mph 26.5 mph N/A   Clear
1:35 AM 21.2 °F 6.0 °F 15.8 °F 80% 30.36 in 10.0 mi North 19.6 mph 24.2 mph N/A   Clear
1:55 AM 21.2 °F 6.0 °F 14.0 °F 74% 30.37 in 10.0 mi North 19.6 mph 24.2 mph N/A   Clear
2:15 AM 19.4 °F 4.5 °F 14.0 °F 80% 30.37 in 10.0 mi North 17.3 mph 24.2 mph N/A   Clear
2:35 AM 19.4 °F 4.1 °F 14.0 °F 80% 30.39 in 10.0 mi North 18.4 mph 23.0 mph N/A   Clear
2:55 AM 19.4 °F 7.2 °F 14.0 °F 80% 30.40 in 10.0 mi North 11.5 mph - N/A   Clear
3:15 AM 19.4 °F 7.9 °F 14.0 °F 80% 30.41 in 10.0 mi North 10.4 mph - N/A   Clear
3:35 AM 19.4 °F 8.6 °F 14.0 °F 80% 30.41 in 10.0 mi North 9.2 mph - N/A   Clear
3:55 AM 19.4 °F 9.5 °F 14.0 °F 80% 30.41 in 10.0 mi North 8.1 mph - N/A   Clear
4:15 AM 19.4 °F 9.5 °F 14.0 °F 80% 30.42 in 10.0 mi NNW 8.1 mph - N/A   Clear
4:35 AM 17.6 °F 6.4 °F 14.0 °F 86% 30.42 in 10.0 mi North 9.2 mph - N/A   Clear
4:55 AM 19.4 °F 9.5 °F 14.0 °F 80% 30.42 in 10.0 mi North 8.1 mph - N/A   Clear
5:15 AM 17.6 °F 9.3 °F 14.0 °F 86% 30.42 in 10.0 mi NNW 5.8 mph - N/A   Clear
5:35 AM 17.6 °F 8.2 °F 14.0 °F 86% 30.43 in 10.0 mi NNW 6.9 mph - N/A   Clear
5:55 AM 17.6 °F 8.2 °F 14.0 °F 86% 30.43 in 10.0 mi NNW 6.9 mph - N/A   Clear
6:15 AM 17.6 °F 8.2 °F 14.0 °F 86% 30.44 in 10.0 mi NNW 6.9 mph - N/A   Clear
6:35 AM 17.6 °F 10.7 °F 14.0 °F 86% 30.44 in 10.0 mi WNW 4.6 mph - N/A   Clear
6:55 AM 17.6 °F 10.7 °F 12.2 °F 79% 30.45 in 10.0 mi NW 4.6 mph - N/A   Clear
7:15 AM 17.6 °F 12.3 °F 14.0 °F 86% 30.45 in 10.0 mi WNW 3.5 mph - N/A   Clear
7:35 AM 17.6 °F 12.3 °F 12.2 °F 79% 30.45 in 10.0 mi NW 3.5 mph - N/A   Clear
7:55 AM 17.6 °F - 12.2 °F 79% 30.45 in 10.0 mi Calm Calm - N/A   Clear
8:15 AM 17.6 °F 10.7 °F 12.2 °F 79% 30.45 in 10.0 mi WNW 4.6 mph - N/A   Clear
8:35 AM 19.4 °F - 14.0 °F 80% 30.45 in 10.0 mi Calm Calm - N/A   Clear
8:55 AM 19.4 °F 10.4 °F 15.8 °F 86% 30.45 in 10.0 mi NW 6.9 mph - N/A   Clear
9:15 AM 21.2 °F 12.6 °F 17.6 °F 86% 30.46 in 10.0 mi NNW 6.9 mph - N/A   Clear
9:35 AM 23.0 °F 14.7 °F 17.6 °F 80% 30.46 in 10.0 mi NNW 6.9 mph - N/A   Clear
9:55 AM 24.8 °F 19.1 °F 17.6 °F 74% 30.47 in 10.0 mi North 4.6 mph - N/A   Clear
10:15 AM 24.8 °F 19.1 °F 17.6 °F 74% 30.47 in 10.0 mi NW 4.6 mph - N/A   Clear
10:35 AM 26.6 °F 20.0 °F 17.6 °F 69% 30.48 in 10.0 mi NNW 5.8 mph - N/A   Clear
10:55 AM 28.4 °F - 17.6 °F 64% 30.49 in 10.0 mi Calm Calm - N/A   Clear
11:15 AM 28.4 °F 21.2 °F 19.4 °F 69% 30.49 in 10.0 mi NW 6.9 mph - N/A   Clear
11:35 AM 30.2 °F - 19.4 °F 64% 30.47 in 10.0 mi Calm Calm - N/A   Clear
11:55 AM 32.0 °F - 19.4 °F 60% 30.47 in 10.0 mi Calm Calm - N/A   Clear
12:15 PM 32.0 °F 28.7 °F 19.4 °F 60% 30.45 in 10.0 mi NNE 3.5 mph - N/A   Clear
12:35 PM 32.0 °F 26.4 °F 21.2 °F 64% 30.43 in 10.0 mi West 5.8 mph - N/A   Clear
12:55 PM 33.8 °F 28.6 °F 21.2 °F 60% 30.43 in 10.0 mi WNW 5.8 mph - N/A   Clear
1:15 PM 33.8 °F 30.8 °F 21.2 °F 60% 30.41 in 10.0 mi SW 3.5 mph - N/A   Clear
1:35 PM 35.6 °F - 21.2 °F 56% 30.40 in 10.0 mi Calm Calm - N/A   Clear
1:55 PM 35.6 °F 30.7 °F 23.0 °F 60% 30.39 in 10.0 mi SW 5.8 mph - N/A   Clear
2:15 PM 37.4 °F - 23.0 °F 56% 30.38 in 10.0 mi Calm Calm - N/A   Clear
2:35 PM 37.4 °F 32.8 °F 23.0 °F 56% 30.37 in 10.0 mi West 5.8 mph - N/A   Clear
2:55 PM 37.4 °F 34.9 °F 23.0 °F 56% 30.36 in 10.0 mi WSW 3.5 mph - N/A   Clear
3:15 PM 37.4 °F 33.8 °F 23.0 °F 56% 30.36 in 10.0 mi SW 4.6 mph - N/A   Clear
3:35 PM 39.2 °F 35.9 °F 24.8 °F 56% 30.36 in 10.0 mi SW 4.6 mph - N/A   Clear
3:55 PM 37.4 °F 33.8 °F 24.8 °F 60% 30.36 in 10.0 mi SW 4.6 mph - N/A   Clear
4:15 PM 39.2 °F 34.2 °F 24.8 °F 56% 30.36 in 10.0 mi SSW 6.9 mph - N/A   Clear
4:35 PM 39.2 °F 35.0 °F 24.8 °F 56% 30.36 in 10.0 mi South 5.8 mph - N/A   Clear
4:55 PM 37.4 °F 32.8 °F 24.8 °F 60% 30.35 in 10.0 mi SSW 5.8 mph - N/A   Clear
5:15 PM 37.4 °F 32.1 °F 24.8 °F 60% 30.35 in 10.0 mi South 6.9 mph - N/A   Clear
5:35 PM 35.6 °F 31.7 °F 24.8 °F 65% 30.35 in 10.0 mi South 4.6 mph - N/A   Clear
5:55 PM 35.6 °F 31.7 °F 23.0 °F 60% 30.35 in 10.0 mi South 4.6 mph - N/A   Clear
6:15 PM 33.8 °F 27.7 °F 23.0 °F 65% 30.35 in 10.0 mi South 6.9 mph - N/A   Clear
6:35 PM 32.0 °F 26.4 °F 23.0 °F 69% 30.35 in 10.0 mi South 5.8 mph - N/A   Clear
6:55 PM 32.0 °F 27.5 °F 23.0 °F 69% 30.35 in 10.0 mi South 4.6 mph - N/A   Clear
7:15 PM 32.0 °F 27.5 °F 23.0 °F 69% 30.35 in 10.0 mi SSW 4.6 mph - N/A   Clear
7:35 PM 32.0 °F 26.4 °F 23.0 °F 69% 30.36 in 10.0 mi SSW 5.8 mph - N/A   Clear
7:55 PM 32.0 °F 26.4 °F 23.0 °F 69% 30.36 in 10.0 mi SSW 5.8 mph - N/A   Clear
8:15 PM 32.0 °F 26.4 °F 23.0 °F 69% 30.36 in 10.0 mi South 5.8 mph - N/A   Clear
8:35 PM 30.2 °F 25.4 °F 23.0 °F 75% 30.36 in 10.0 mi South 4.6 mph - N/A   Clear
8:55 PM 30.2 °F 26.7 °F 23.0 °F 75% 30.36 in 10.0 mi South 3.5 mph - N/A   Clear
9:15 PM 30.2 °F 25.4 °F 23.0 °F 75% 30.35 in 10.0 mi South 4.6 mph - N/A   Clear
9:35 PM 30.2 °F 25.4 °F 23.0 °F 75% 30.34 in 10.0 mi South 4.6 mph - N/A   Clear
9:55 PM 28.4 °F 24.6 °F 21.2 °F 74% 30.34 in 10.0 mi South 3.5 mph - N/A   Clear
10:15 PM 28.4 °F - 21.2 °F 74% 30.34 in 10.0 mi Calm Calm - N/A   Clear
10:35 PM 28.4 °F 24.6 °F 21.2 °F 74% 30.34 in 10.0 mi South 3.5 mph - N/A   Clear
10:55 PM 28.4 °F - 21.2 °F 74% 30.34 in 10.0 mi Calm Calm - N/A   Clear
11:15 PM 26.6 °F 22.6 °F 21.2 °F 80% 30.34 in 10.0 mi SE 3.5 mph - N/A   Clear
11:35 PM 26.6 °F - 21.2 °F 80% 30.34 in 10.0 mi Calm Calm - N/A   Clear
11:55 PM 28.4 °F 24.6 °F 21.2 °F 74% 30.34 in 10.0 mi South 3.5 mph - N/A   Clear